Regional Weather Roundup
Issued by NWS Northern Indiana

Home | Current Version | Previous Version | Graphics & Text | Print | Product List | Glossary On
Versions: 1 2 3 4 5 6 7 8 9 10 11 12 13 14 15 16 17 18 19 20 21 22 23 24 25 26 27 28 29 30 31 32 33 34 35 36 37 38 39 40 41 42 43 44 45 46 47 48 49 50
629
ASUS43 KIWX 240400
RWRIWX

KIWX WEATHER ROUNDUP
NATIONAL WEATHER SERVICE NORTHERN INDIANA
1200 AM EDT TUE MAY 24 2016

NOTE: "FAIR" INDICATES FEW OR NO CLOUDS BELOW 12,000 FEET WITH NO
SIGNIFICANT WEATHER AND/OR OBSTRUCTIONS TO VISIBILITY.

* THESE STATIONS ARE NOT UNDER NWS QUALITY CONTROL. THEY ALSO MAY NOT
  REPORT WEATHER SUCH AS PRECIPITATION OR FOG.

INZ001>027-240500-
NORTHERN INDIANA

CITY           SKY/WX    TMP DP  RH WIND       PRES   REMARKS
SOUTH BEND     CLEAR     64  35  34 SE7       29.98S
GOSHEN         CLEAR     57  36  45 SE6       29.99F
ANGOLA*        CLEAR     52  43  71 CALM      30.01F
FORT WAYNE     PTCLDY    58  45  62 S3        30.02S

$$
INZ028>050-240500-
CENTRAL INDIANA

CITY           SKY/WX    TMP DP  RH WIND       PRES   REMARKS
LAFAYETTE      CLEAR     59  43  55 CALM      29.98S
KOKOMO*        CLEAR     55  41  58 S6        30.01S
MUNCIE*        CLEAR     64  44  48 S5        30.02F
INDIANAPOLIS   PTCLDY    67  39  35 S10       30.00S

$$
MIZ043>046-050>051-056>058-064>065-071>073-077>080-240500-
SOUTHWEST LOWER MICHIGAN

CITY           SKY/WX    TMP DP  RH WIND       PRES   REMARKS
BATTLE CREEK   CLEAR     57  36  45 S6        30.00F
BENTON HARBOR  CLEAR     62  38  40 SE7       29.96S
COLDWATER*     CLEAR     53  41  64 CALM      30.00F
HILLSDALE*     CLEAR     55  39  54 CALM      30.02F
HOLLAND        CLEAR     59  45  59 CALM      29.97R
GRAND RAPIDS   CLEAR     59  46  62 S7        29.98S
KALAMAZOO      CLEAR     63  35  35 SE5       29.99F
STURGIS*       CLEAR     59  35  40 CALM      29.99F
THREE RIVERS*  FAIR      57  39  49 CALM      30.00S

$$
OHZ001>008-015>018-024>025-240500-
NORTHWEST OHIO

CITY           SKY/WX    TMP DP  RH WIND       PRES   REMARKS
DEFIANCE       CLEAR     57  47  69 CALM      30.01F
FINDLAY        CLEAR     60  46  59 E5        30.02S
TOLEDO EXPRESS CLEAR     54  49  83 CALM      30.01F
TOLEDO METCALF CLEAR     60  48  64 SE5       30.03S
LIMA           CLEAR     58  48  69 CALM      30.03S

$$
AND FOR LAKE MICHIGAN COASTAL AND OPEN LAKE BUOY OBSERVATIONS

STATION/POSITION TEMP    WIND        PRES    VSBY  WAVE
                 AIR SEA DIR/SP/G                  HT/PER
                 (F)     (DEG/KT/KT) (MB)    (MI)  (FT/S)
CALUMET HARBOR                       1013.0R
MICHIGAN CITY     69     120/  8/  9   N/A
BURNS HARBOR      73     150/  9/ 16 1014.6R
SAINT JOSEPH      65      CALM  /  1 1015.2R
SOUTH LAKE BUOY   55 50  120/ 10/ 12 1013.2          0
4 MI NW BRIDGMAN  65 60  130/  8/ 10   N/A           0
MICHIGAN CITY     64 58  150/  6/  8   N/A           0

$$
&&




USA.gov is the U.S. government's official web portal to all federal, state and local government web resources and services.